Lid_Strength_Index
0 -0 0 0 0 1 0 1 2 3 2 2 3 3 3 3 3 1 4 3 2 0 2 3 3 3 3 4 4 4 8 8 8 8 8 6 7 5 3 4 3 3 4 3 2
0 -0 -0 0 0 1 1 2 2 2 3 3 3 3 3 3 3 3 2 2 1 1 3 4 4 4 5 5 4 6 8 8 6 6 7 6 6 5 5 4 4 4 3 2 2
1 1 0 -0 1 1 1 2 2 2 3 3 3 3 3 3 4 4 1 1 2 3 3 4 5 5 6 5 5 5 7 6 6 5 5 6 5 4 5 6 4 4 3 3 3
1 1 1 1 0 0 1 2 2 2 3 3 3 3 3 3 8 3 0 1 1 3 4 5 5 7 6 7 5 7 5 5 5 5 6 6 5 6 5 4 3 3 3 2 3
2 1 1 1 0 0 1 1 2 2 3 4 3 3 2 4 4 1 0 0 3 4 5 5 6 6 7 6 6 7 6 6 6 6 6 6 6 6 5 4 3 3 3 3 3
2 2 1 1 0 1 1 2 2 2 3 4 3 4 3 7 1 1 2 3 3 3 4 5 5 5 7 7 7 6 6 6 6 6 6 7 6 6 5 4 4 4 3 3 3
3 2 2 1 1 1 1 1 2 3 2 4 4 4 4 5 0 1 2 2 2 3 4 4 5 6 6 7 6 6 8 6 6 6 6 6 7 7 5 4 5 5 4 4 3
3 3 2 2 2 1 2 2 2 2 3 3 4 4 6 0 0 2 2 2 1 2 3 3 4 5 6 6 7 8 8 9 7 7 6 6 8 6 5 5 5 5 5 4 3
3 3 3 3 3 2 3 3 2 2 4 3 4 3 6 1 4 2 2 5 3 4 4 4 5 6 7 8 9 8 10 9 9 7 7 7 8 5 5 5 5 5 5 4 3
4 3 4 4 4 4 4 3 3 4 5 4 5 5 4 5 4 3 3 4 6 5 6 6 6 8 8 8 12 10 10 10 9 8 7 8 8 6 5 5 6 5 5 4 4
4 4 4 4 4 5 5 6 8 9 8 8 6 6 5 3 3 4 5 5 6 6 8 7 9 10 10 8 7 9 10 10 8 8 9 8 8 7 5 6 6 5 5 5 5
4 4 3 4 4 5 4 6 6 4 9 7 5 5 3 4 6 6 4 7 8 9 7 10 10 7 8 8 9 9 10 10 8 8 9 8 9 7 6 6 6 6 5 5 5
4 3 3 3 5 5 5 5 3 3 8 7 6 6 5 4 7 7 5 7 8 9 9 9 8 7 9 10 10 10 10 10 10 8 8 9 9 8 7 7 7 6 5 5 5
3 3 3 3 6 5 6 3 4 3 12 11 8 7 6 5 8 5 5 7 8 10 9 9 7 9 10 11 10 11 8 9 9 10 13 9 13 9 9 8 8 7 6 6 6
3 3 3 3 4 6 4 3 4 6 20 11 10 5 5 7 8 8 4 6 9 9 10 11 10 10 11 10 10 10 9 9 9 10 11 10 13 9 8 10 8 7 6 6 7
3 3 2 4 4 3 3 4 7 17 20 13 9 9 9 8 8 8 7 6 6 9 9 9 8 9 9 9 9 9 10 11 11 11 15 11 12 11 9 9 8 7 7 7 8
4 3 3 2 5 2 3 6 15 18 11 13 12 10 10 10 10 9 10 10 11 13 13 11 11 10 10 11 9 10 11 15 15 15 16 11 12 10 10 8 8 8 8 8 9
4 3 3 3 2 1 4 10 18 15 14 10 10 10 11 10 10 11 10 11 9 10 11 13 14 10 10 10 12 12 11 15 21 17 15 13 15 11 9 8 7 7 8 9 10
3 3 4 2 3 4 7 16 16 13 11 11 10 13 12 11 10 11 10 10 9 9 12 12 13 9 8 9 9 12 13 10 15 14 16 12 12 11 10 10 10 9 10 11 11
5 5 5 2 1 7 10 14 14 10 10 9 14 11 14 12 12 11 11 9 9 8 8 10 14 11 10 9 8 10 9 15 15 20 20 14 13 11 12 12 11 11 11 12 11
5 10 6 2 2 8 16 13 11 8 8 10 11 12 11 12 11 12 11 11 8 8 8 10 11 14 12 12 11 11 13 12 12 13 18 18 14 11 10 10 11 11 12 12 11
6 13 5 2 11 9 14 11 8 9 7 9 8 9 10 10 11 12 11 9 9 8 11 9 10 13 14 12 11 9 11 11 17 19 14 15 15 10 9 9 10 12 13 12 11
8 10 4 4 15 12 10 10 9 9 8 9 9 8 9 10 13 11 10 10 11 10 10 10 13 17 15 14 13 14 12 10 11 12 16 17 15 11 9 11 12 12 12 12 11
6 13 10 7 7 11 11 12 12 7 8 7 8 7 9 11 9 12 11 12 11 10 10 9 11 13 15 13 12 15 14 12 11 16 14 14 13 14 13 13 12 12 12 11 11
6 9 8 12 12 10 10 11 12 13 8 7 9 9 10 13 12 11 10 13 12 11 11 10 13 12 12 13 13 13 13 13 14 12 14 12 12 11 12 11 10 11 12 12 11
9 9 7 8 9 11 11 12 12 11 10 11 11 9 9 12 11 12 10 12 13 12 13 10 14 13 14 12 15 15 13 13 13 12 12 11 11 9 9 10 12 13 12 12 11
3 3 6 8 8 12 11 11 11 9 9 8 8 9 10 9 8 8 8 9 10 12 13 14 14 16 17 14 15 17 14 14 13 12 12 14 10 9 12 12 12 12 11 11 10